Location: Ca�n Batista
(41.4099°N, 1.7752°E)
Time: 14:28:04
(UTC+00:00)

Cosmos 1302 Rocket - Pass Details

Date: 03 March 2021
Orbit: 756 x 777 km, 74.0° (Epoch: 21 April)

Event Time Altitude Azimuth Distance (km) Brightness Sun altitude
Rises 18:06:00 0° 203° (SSW) 3,196 7.6 -4.5°
Reaches altitude 10° 18:08:22 10° 205° (SSW) 2,275 6.9 -5.0°
Maximum altitude 18:13:30 73° 290° (WNW) 795 4.3 -6.0°
Drops below altitude 10° 18:18:43 10° 16° (NNE) 2,298 6.3 -6.9°
Sets 18:21:07 0° 18° (NNE) 3,230 7.0 -7.4°
